Weather Service Report


441 
ASUS44 KBMX 180810
RWRAL 
             
ALABAMA REGIONAL WEATHER ROUNDUP
NATIONAL WEATHER SERVICE BIRMINGHAM AL
200 AM CST THU DEC 18 2014

NOTE: "FAIR" INDICATES FEW OR NO CLOUDS BELOW 12,000 FEET
WITH NO SIGNIFICANT WEATHER AND/OR OBSTRUCTIONS TO VISIBILITY.

THE REMARK "TC" DENOTES TEMPERATURE IN DEGREES CELSIUS.

ALZ001>011-014-016>018-020-180900-
NORTH ALABAMA
  
CITY           SKY/WX    TMP DP  RH WIND       PRES   REMARKS
MUSCLE SHOALS  CLOUDY    40  31  70 N5        30.26R                  
HUNTSVILLE     CLOUDY    38  30  73 N7        30.23R WCI  33          
DECATUR        CLOUDY    37  31  78 N6        30.25R WCI  32          
HALEYVILLE     FAIR      35  32  89 CALM      30.24R                  
GADSDEN        MOCLDY    36  30  80 N5        30.19F WCI  32          
$$
 
ALZ012-013-022-023-030>036-040>044-180900-
WEST CENTRAL ALABAMA
  
CITY           SKY/WX    TMP DP  RH WIND       PRES   REMARKS
TUSCALOOSA     PTCLDY    36  33  89 CALM      30.23R                  
$$
 
ALZ015-024>027-033>036-040>044-180900-
CENTRAL ALABAMA
  
CITY           SKY/WX    TMP DP  RH WIND       PRES   REMARKS
BIRMINGHAM     PTCLDY    35  32  88 CALM      30.20S                  
MONTGOMERY     CLOUDY    38  35  89 CALM      30.19R                  
SHELBY CO ARPT PTCLDY    36  34  92 CALM      30.18S                  
MAXWELL AFB    CLOUDY    39  37  93 NW1       30.18R                  
GREENVILLE     FAIR      38  35  89 CALM      30.16F                  
$$
 
ALZ019-021-028-029-037-038-045>048-180900-
EAST CENTRAL ALABAMA
  
CITY           SKY/WX    TMP DP  RH WIND       PRES   REMARKS
ANNISTON       MOCLDY    34  32  92 CALM      30.18F                  
ALEXANDER CITY CLOUDY    40  34  79 CALM      30.16S                  
AUBURN         MOCLDY    37  32  81 N8        30.17R WCI  31          
$$
 
ALZ051>064-180900-
SOUTHWEST ALABAMA
  
CITY           SKY/WX    TMP DP  RH WIND       PRES   REMARKS
MOBILE         PTCLDY    40  39  97 N3        30.19S                  
BROOKLEY FIELD MOCLDY    46  42  86 NW6       30.20F                  
EVERGREEN      PTCLDY    38  36  92 CALM      30.19S                  
$$

ALZ049-050-065>069-180900-
SOUTHEAST ALABAMA
  
CITY           SKY/WX    TMP DP  RH WIND       PRES   REMARKS
DOTHAN         MOCLDY    43  39  86 N6        30.20R                  
OZARK          CLOUDY    43  38  83 N3        30.17R                  
TROY           MOCLDY    38  36  92 CALM      30.17F                  
EUFAULA        FAIR      42  38  85 CALM      30.17R                  
$$

Return to Home page


Western Regional Climate Center, wrcc@dri.edu